SWA1215 KCMH-KORD

Flight info

Callsign SWA1215
Flight time N/A
Altitude 30000
Route GAIRY2 IRQ DCT PYRES DMSTR2
Aircraft B737/M-SDE2E3FGHIRWXY/LB1

Departure

Time 2026-05-08 23:37
Airport John Glenn Columbus International Airport (KCMH)

Arrival

Time N/A
Airport Chicago O'Hare International Airport (KORD)
Time Latitude Longitude Altitude Speed Heading
2026-05-08 23:08 39.99647 -82.88399 819 ft 0 kts
2026-05-08 23:27 39.99625 -82.88402 812 ft 4 kts
2026-05-08 23:27 39.99600 -82.88407 816 ft 4 kts 33°
2026-05-08 23:28 39.99587 -82.88429 813 ft 2 kts 93°
2026-05-08 23:28 39.99587 -82.88431 817 ft 1 kts 94°
2026-05-08 23:30 39.99588 -82.88390 813 ft 7 kts 79°
2026-05-08 23:30 39.99609 -82.88325 817 ft 8 kts 70°
2026-05-08 23:31 39.99616 -82.88247 818 ft 9 kts 91°
2026-05-08 23:31 39.99611 -82.88166 813 ft 9 kts 95°
2026-05-08 23:31 39.99606 -82.88088 819 ft 9 kts 94°
2026-05-08 23:31 39.99602 -82.88012 821 ft 8 kts 95°
2026-05-08 23:32 39.99597 -82.87938 822 ft 8 kts 95°
2026-05-08 23:32 39.99592 -82.87866 823 ft 8 kts 93°
2026-05-08 23:32 39.99586 -82.87797 824 ft 8 kts 104°
2026-05-08 23:32 39.99574 -82.87731 824 ft 8 kts 99°
2026-05-08 23:33 39.99569 -82.87660 824 ft 8 kts 95°
2026-05-08 23:33 39.99564 -82.87591 825 ft 8 kts 95°
2026-05-08 23:33 39.99560 -82.87523 825 ft 7 kts 95°
2026-05-08 23:33 39.99555 -82.87454 825 ft 8 kts 94°
2026-05-08 23:34 39.99552 -82.87385 824 ft 8 kts 94°
2026-05-08 23:34 39.99537 -82.87316 821 ft 8 kts 127°
2026-05-08 23:34 39.99485 -82.87294 823 ft 8 kts 177°
2026-05-08 23:34 39.99430 -82.87299 824 ft 7 kts 185°
2026-05-08 23:35 39.99420 -82.87300 824 ft 0 kts 185°
2026-05-08 23:35 39.99382 -82.87306 824 ft 8 kts 187°
2026-05-08 23:35 39.99323 -82.87315 823 ft 9 kts 187°
2026-05-08 23:35 39.99265 -82.87323 822 ft 8 kts 185°
2026-05-08 23:36 39.99208 -82.87334 822 ft 8 kts 199°
2026-05-08 23:36 39.99170 -82.87383 822 ft 8 kts 250°
2026-05-08 23:36 39.99170 -82.87465 821 ft 17 kts 274°
2026-05-08 23:36 39.99200 -82.88009 820 ft 103 kts 274°
2026-05-08 23:37 39.99274 -82.89273 873 ft 171 kts 274°
2026-05-08 23:37 39.99365 -82.90953 1432 ft 204 kts 272°
2026-05-08 23:37 39.99451 -82.92928 1920 ft 235 kts 274°
2026-05-08 23:37 39.99602 -82.95118 2707 ft 246 kts 275°
2026-05-08 23:38 39.99786 -82.97310 3648 ft 243 kts 274°
2026-05-08 23:38 39.99962 -82.99524 4452 ft 245 kts 273°
2026-05-08 23:38 40.00156 -83.01732 4887 ft 245 kts 274°
2026-05-08 23:38 40.00360 -83.03957 4988 ft 250 kts 274°
2026-05-08 23:39 40.00568 -83.06212 4994 ft 250 kts 274°
2026-05-08 23:39 40.00751 -83.08446 4984 ft 246 kts 270°
2026-05-08 23:39 40.00802 -83.10684 5122 ft 250 kts 268°
2026-05-08 23:39 40.00819 -83.12953 5974 ft 248 kts 267°
2026-05-08 23:40 40.00835 -83.15196 6947 ft 247 kts 267°
2026-05-08 23:40 40.00853 -83.17451 7798 ft 251 kts 268°
2026-05-08 23:40 40.00874 -83.19741 8648 ft 254 kts 268°
2026-05-08 23:40 40.00897 -83.22056 9523 ft 256 kts 268°
2026-05-08 23:41 40.00923 -83.24392 10347 ft 259 kts 268°
2026-05-08 23:41 40.00949 -83.26838 10623 ft 283 kts 269°
2026-05-08 23:41 40.00978 -83.29510 10835 ft 306 kts 269°
2026-05-08 23:41 40.01011 -83.32395 10999 ft 329 kts 269°
2026-05-08 23:42 40.01047 -83.35451 11341 ft 343 kts 270°
2026-05-08 23:42 40.01085 -83.38581 12062 ft 346 kts 270°
2026-05-08 23:42 40.01122 -83.41721 12868 ft 347 kts 271°
2026-05-08 23:42 40.01159 -83.44877 13599 ft 350 kts 271°
2026-05-08 23:43 40.01195 -83.48069 14250 ft 352 kts 271°
2026-05-08 23:43 40.01229 -83.51269 14912 ft 354 kts 271°
2026-05-08 23:43 40.01263 -83.54491 15509 ft 357 kts 271°
2026-05-08 23:43 40.01301 -83.57707 16107 ft 360 kts 272°
2026-05-08 23:44 40.01547 -83.60968 16664 ft 364 kts 279°
2026-05-08 23:44 40.02001 -83.64230 17294 ft 366 kts 280°
2026-05-08 23:44 40.02438 -83.67503 17887 ft 369 kts 279°
2026-05-08 23:44 40.02861 -83.70814 18408 ft 372 kts 279°
2026-05-08 23:45 40.03279 -83.74164 18918 ft 374 kts 279°
2026-05-08 23:45 40.03693 -83.77512 19510 ft 374 kts 278°
2026-05-08 23:45 40.04107 -83.80864 20089 ft 375 kts 278°
2026-05-08 23:45 40.04522 -83.84235 20587 ft 377 kts 278°
2026-05-08 23:46 40.05035 -83.87599 21045 ft 381 kts 285°
2026-05-08 23:46 40.06048 -83.90822 21521 ft 386 kts 294°
2026-05-08 23:46 40.07401 -83.93850 22130 ft 388 kts 300°
2026-05-08 23:46 40.09133 -83.96612 22505 ft 398 kts 308°
2026-05-08 23:47 40.11087 -83.99189 22969 ft 400 kts 309°
2026-05-08 23:47 40.13041 -84.01781 23425 ft 402 kts 308°
2026-05-08 23:47 40.15007 -84.04412 23771 ft 405 kts 308°
2026-05-08 23:47 40.16973 -84.07059 24125 ft 407 kts 308°
2026-05-08 23:48 40.18919 -84.09689 24504 ft 407 kts 308°
2026-05-08 23:48 40.20891 -84.12360 24893 ft 408 kts 308°
2026-05-08 23:48 40.22866 -84.15043 25239 ft 410 kts 308°
2026-05-08 23:48 40.24853 -84.17745 25565 ft 412 kts 308°
2026-05-08 23:49 40.26846 -84.20459 25891 ft 414 kts 308°
2026-05-08 23:49 40.28845 -84.23182 26238 ft 415 kts 308°
2026-05-08 23:49 40.30841 -84.25903 26682 ft 413 kts 308°
2026-05-08 23:49 40.32826 -84.28608 27234 ft 409 kts 308°
2026-05-08 23:50 40.34791 -84.31286 27815 ft 405 kts 308°
2026-05-08 23:50 40.36736 -84.33942 28326 ft 403 kts 307°
2026-05-08 23:50 40.38676 -84.36597 28737 ft 403 kts 307°
2026-05-08 23:50 40.40610 -84.39248 29144 ft 402 kts 307°
2026-05-08 23:51 40.41889 -84.41002 29467 ft 401 kts 307°
2026-05-08 23:51 40.43811 -84.43637 29971 ft 398 kts 307°
2026-05-08 23:51 40.46366 -84.47150 29816 ft 404 kts 307°
2026-05-08 23:51 40.48295 -84.49801 29953 ft 399 kts 307°
2026-05-08 23:52 40.52118 -84.55057 29930 ft 396 kts 307°
2026-05-08 23:52 40.55285 -84.59424 29928 ft 396 kts 307°
2026-05-08 23:53 40.59098 -84.64691 29892 ft 398 kts 307°
2026-05-08 23:53 40.62922 -84.69981 29877 ft 400 kts 307°
2026-05-08 23:54 40.66753 -84.75288 29876 ft 399 kts 307°
2026-05-08 23:55 40.72483 -84.83243 29876 ft 399 kts 307°
2026-05-08 23:55 40.76297 -84.88551 29872 ft 399 kts 307°
2026-05-08 23:56 40.80107 -84.93863 29875 ft 399 kts 307°
2026-05-08 23:56 40.83919 -84.99187 29889 ft 398 kts 306°
2026-05-08 23:57 40.87727 -85.04516 29894 ft 398 kts 306°
2026-05-08 23:57 40.91514 -85.09820 29750 ft 389 kts 306°
2026-05-08 23:57 40.93340 -85.12379 28958 ft 388 kts 306°
2026-05-08 23:58 40.95201 -85.15001 27871 ft 394 kts 306°
2026-05-08 23:58 40.97102 -85.17681 26644 ft 403 kts 306°
2026-05-08 23:58 40.99039 -85.20426 25437 ft 412 kts 306°
2026-05-08 23:58 41.00984 -85.23231 24548 ft 414 kts 306°
2026-05-08 23:59 41.02909 -85.26022 24293 ft 410 kts 306°
2026-05-08 23:59 41.04835 -85.28824 24228 ft 412 kts 306°
2026-05-08 23:59 41.06755 -85.31613 24083 ft 407 kts 306°
2026-05-08 23:59 41.08661 -85.34383 23972 ft 406 kts 306°